When you browse on this site, cookies collect data to enhance your experience and personalize the content and advertising you see.
Visit our Privacy Policy to learn more. By continuing to use the site, you agree to this use of cookies and data.
  • In Lithuania
  • List of Countries
  • For 7 days
  • Water Temperature
  • Weather Map
  • Weather Widgets
  • user-avatar
    Login

    Hourly Weather Saskatoon

    Today, 14 December, Saturday

    Time Temperature Precipitation Wind Pressure Humidity
    00:00 -23°C° 0 mm 1 mps 719 mmHg 85%
    01:00 -23°C° 0 mm 1 mps 719 mmHg 85%
    02:00 -23°C° 0 mm 1 mps 718 mmHg 86%
    03:00 -23°C° 0 mm 1 mps 718 mmHg 86%
    04:00 -25°C° 0 mm 2 mps 718 mmHg 86%
    05:00 -24°C° 0 mm 2 mps 717 mmHg 85%
    06:00 -24°C° 0 mm 2 mps 717 mmHg 84%
    07:00 -24°C° 0 mm 2 mps 716 mmHg 83%
    08:00 -24°C° 0 mm 2 mps 716 mmHg 82%
    09:00 -23°C° 0 mm 2 mps 715 mmHg 81%
    10:00 -23°C° 0 mm 3 mps 715 mmHg 80%
    11:00 -22°C° 0 mm 3 mps 715 mmHg 79%
    12:00 -22°C° 0 mm 3 mps 714 mmHg 83%
    13:00 -22°C° 0 mm 3 mps 714 mmHg 87%
    14:00 -19°C° 0 mm 2 mps 713 mmHg 90%
    15:00 -22°C° 0 mm 3 mps 712 mmHg 92%
    16:00 -22°C° 0 mm 3 mps 712 mmHg 94%
    17:00 -23°C° 0 mm 3 mps 711 mmHg 96%
    18:00 -23°C° 0 mm 3 mps 711 mmHg 96%
    19:00 -22°C° 0 mm 3 mps 710 mmHg 95%
    20:00 -22°C° 0 mm 3 mps 710 mmHg 95%
    21:00 -22°C° 0 mm 4 mps 710 mmHg 94%
    22:00 -22°C° 0 mm 4 mps 709 mmHg 94%
    23:00 -20°C° 0 mm 4 mps 709 mmHg 93%

    Tomorrow, 15 December, Sunday

    Time Temperature Precipitation Wind Pressure Humidity
    00:00 -19°C° 0 mm 3 mps 709 mmHg 94%
    01:00 -18°C° 0 mm 3 mps 709 mmHg 94%
    02:00 -18°C° 0 mm 3 mps 709 mmHg 95%
    03:00 -18°C° 0 mm 3 mps 709 mmHg 94%
    04:00 -19°C° 0 mm 4 mps 709 mmHg 94%
    05:00 -19°C° 0 mm 4 mps 710 mmHg 94%
    06:00 -22°C° 0 mm 4 mps 710 mmHg 94%
    07:00 -23°C° 0 mm 4 mps 711 mmHg 94%
    08:00 -23°C° 0 mm 3 mps 711 mmHg 94%
    09:00 -24°C° 0 mm 4 mps 712 mmHg 92%
    10:00 -24°C° 0 mm 4 mps 712 mmHg 90%
    11:00 -24°C° 0 mm 4 mps 713 mmHg 88%
    12:00 -23°C° 0 mm 3 mps 713 mmHg 88%
    13:00 -22°C° 0 mm 3 mps 713 mmHg 89%
    14:00 -22°C° 0 mm 3 mps 714 mmHg 89%
    15:00 -23°C° 0 mm 3 mps 714 mmHg 90%
    16:00 -23°C° 0 mm 2 mps 714 mmHg 92%
    17:00 -24°C° 0 mm 2 mps 714 mmHg 93%
    18:00 -24°C° 0 mm 2 mps 714 mmHg 93%
    19:00 -23°C° 0 mm 2 mps 714 mmHg 93%
    20:00 -23°C° 0 mm 2 mps 714 mmHg 93%
    21:00 -24°C° 0 mm 3 mps 714 mmHg 93%
    22:00 -24°C° 0 mm 3 mps 714 mmHg 93%
    23:00 -24°C° 0 mm 3 mps 714 mmHg 93%

    Day after tomorrow, 16 December, Monday

    Time Temperature Precipitation Wind Pressure Humidity
    00:00 -23°C° 0 mm 3 mps 713 mmHg 93%
    01:00 -22°C° 0 mm 3 mps 713 mmHg 94%
    02:00 -22°C° 0 mm 3 mps 713 mmHg 95%
    03:00 -21°C° 0 mm 3 mps 713 mmHg 93%
    04:00 -19°C° 0 mm 3 mps 713 mmHg 92%
    05:00 -18°C° 0 mm 3 mps 713 mmHg 91%
    06:00 -17°C° 0 mm 3 mps 713 mmHg 90%
    07:00 -17°C° 0 mm 3 mps 713 mmHg 89%
    08:00 -16°C° 0 mm 3 mps 713 mmHg 89%
    09:00 -15°C° 0 mm 3 mps 713 mmHg 88%
    10:00 -14°C° 0 mm 3 mps 713 mmHg 87%
    11:00 -14°C° 0 mm 3 mps 713 mmHg 86%
    12:00 -14°C° 0 mm 3 mps 713 mmHg 87%
    13:00 -14°C° 0 mm 3 mps 713 mmHg 88%
    14:00 -14°C° 0 mm 3 mps 713 mmHg 89%
    15:00 -15°C° 0 mm 3 mps 714 mmHg 90%
    16:00 -16°C° 0 mm 3 mps 714 mmHg 91%
    17:00 -17°C° 0 mm 3 mps 714 mmHg 92%
    18:00 -17°C° 0 mm 3 mps 715 mmHg 93%
    19:00 -18°C° 0 mm 3 mps 715 mmHg 94%
    20:00 -17°C° 0 mm 2 mps 715 mmHg 94%
    21:00 -17°C° 0 mm 2 mps 716 mmHg 95%
    22:00 -18°C° 0 mm 2 mps 716 mmHg 95%
    23:00 -18°C° 0 mm 2 mps 717 mmHg 95%

    17 December, Tuesday

    Time Temperature Precipitation Wind Pressure Humidity
    00:00 -19°C° 0 mm 2 mps 717 mmHg 94%
    01:00 -19°C° 0 mm 2 mps 718 mmHg 92%
    02:00 -20°C° 0 mm 2 mps 718 mmHg 91%
    03:00 -21°C° 0 mm 2 mps 718 mmHg 91%
    04:00 -21°C° 0 mm 2 mps 719 mmHg 91%
    05:00 -23°C° 0 mm 2 mps 719 mmHg 92%
    06:00 -23°C° 0 mm 2 mps 719 mmHg 92%
    07:00 -23°C° 0 mm 2 mps 719 mmHg 92%
    08:00 -23°C° 0 mm 2 mps 719 mmHg 92%
    09:00 -22°C° 0 mm 3 mps 719 mmHg 93%
    10:00 -21°C° 0 mm 3 mps 719 mmHg 93%
    11:00 -20°C° 0 mm 4 mps 718 mmHg 93%
    12:00 -19°C° 0 mm 4 mps 718 mmHg 93%
    13:00 -18°C° 0 mm 4 mps 717 mmHg 92%
    14:00 -17°C° 0 mm 4 mps 716 mmHg 91%
    15:00 -17°C° 0 mm 4 mps 715 mmHg 92%
    16:00 -18°C° 0 mm 4 mps 714 mmHg 92%
    17:00 -18°C° 0 mm 4 mps 713 mmHg 93%
    18:00 -17°C° 0 mm 4 mps 712 mmHg 92%
    19:00 -16°C° 0 mm 4 mps 711 mmHg 92%
    20:00 -15°C° 0 mm 4 mps 710 mmHg 91%
    21:00 -14°C° 0 mm 4 mps 709 mmHg 90%
    22:00 -12°C° 0 mm 4 mps 709 mmHg 89%
    23:00 -11°C° 0 mm 4 mps 708 mmHg 88%

    18 December, Wednesday

    Time Temperature Precipitation Wind Pressure Humidity
    00:00 -10°C° 0 mm 3 mps 707 mmHg 88%
    01:00 -10°C° 0 mm 3 mps 707 mmHg 88%
    02:00 -12°C° 0 mm 3 mps 706 mmHg 88%
    03:00 -10°C° 0 mm 3 mps 706 mmHg 88%
    04:00 -10°C° 0 mm 3 mps 706 mmHg 87%
    05:00 -11°C° 0 mm 4 mps 706 mmHg 87%
    06:00 -11°C° 0 mm 4 mps 707 mmHg 87%
    07:00 -10°C° 0 mm 4 mps 707 mmHg 87%
    08:00 -10°C° 0 mm 4 mps 708 mmHg 86%
    09:00 -10°C° 0 mm 4 mps 709 mmHg 88%
    10:00 -8°C° 0 mm 3 mps 710 mmHg 89%
    11:00 -8°C° 0 mm 3 mps 711 mmHg 90%
    12:00 -10°C° 0 mm 4 mps 711 mmHg 88%
    13:00 -12°C° 0 mm 4 mps 711 mmHg 86%
    14:00 -15°C° 0 mm 4 mps 712 mmHg 84%
    15:00 -16°C° 0 mm 4 mps 712 mmHg 86%
    16:00 -17°C° 0 mm 3 mps 712 mmHg 89%
    17:00 -18°C° 0 mm 3 mps 713 mmHg 91%
    18:00 -19°C° 0 mm 3 mps 713 mmHg 91%
    19:00 -19°C° 0 mm 3 mps 714 mmHg 91%
    20:00 -19°C° 0 mm 3 mps 714 mmHg 92%
    21:00 -19°C° 0 mm 3 mps 714 mmHg 92%
    22:00 -19°C° 0 mm 3 mps 714 mmHg 91%
    23:00 -19°C° 0 mm 3 mps 715 mmHg 91%

    19 December, Thursday

    Time Temperature Precipitation Wind Pressure Humidity
    00:00 -19°C° 0 mm 3 mps 714 mmHg 90%
    01:00 -20°C° 0 mm 4 mps 714 mmHg 90%
    02:00 -19°C° 0 mm 4 mps 714 mmHg 89%
    03:00 -20°C° 0 mm 5 mps 714 mmHg 88%
    04:00 -20°C° 0 mm 5 mps 714 mmHg 88%
    05:00 -19°C° 0 mm 5 mps 713 mmHg 87%
    06:00 -18°C° 0.2 mm 5 mps 713 mmHg 89%
    07:00 -17°C° 0.2 mm 5 mps 713 mmHg 90%
    08:00 -15°C° 0.2 mm 5 mps 713 mmHg 92%
    09:00 -15°C° 0 mm 6 mps 713 mmHg 90%
    10:00 -14°C° 0 mm 6 mps 713 mmHg 89%
    11:00 -13°C° 0 mm 7 mps 713 mmHg 87%
    12:00 -13°C° 0 mm 7 mps 712 mmHg 87%
    13:00 -12°C° 0 mm 7 mps 712 mmHg 87%
    14:00 -11°C° 0 mm 6 mps 711 mmHg 87%
    15:00 -11°C° 0 mm 6 mps 711 mmHg 88%
    16:00 -11°C° 0 mm 6 mps 711 mmHg 89%
    17:00 -11°C° 0 mm 6 mps 711 mmHg 89%
    18:00 -11°C° 0 mm 6 mps 711 mmHg 90%
    19:00 -12°C° 0 mm 5 mps 711 mmHg 90%
    20:00 -12°C° 0 mm 5 mps 711 mmHg 90%
    21:00 -12°C° 0 mm 5 mps 711 mmHg 90%
    22:00 -11°C° 0 mm 4 mps 711 mmHg 90%
    23:00 -12°C° 0 mm 4 mps 711 mmHg 91%
    Show more